• In Russia
  • List of Countries
  • For 7 days
  • Water Temperature
  • Satellite Maps
  • Weather Map
  • Weather Widgets
  • user-avatar
    Login

    Hourly Weather Innsbruck

    Today, 22 May, Tuesday

    Time Temperature Precipitation Wind Pressure Humidity
    00:00 +2°C° 0 mm 2 mps 593 mmHg 90%
    01:00 +2°C° 0 mm 2 mps 593 mmHg 90%
    02:00 +2°C° 0 mm 2 mps 593 mmHg 90%
    03:00 +1°C° 0 mm 2 mps 592 mmHg 90%
    04:00 +1°C° 0 mm 2 mps 592 mmHg 90%
    05:00 +3°C° 0 mm 2 mps 593 mmHg 86%
    06:00 +5°C° 0 mm 1 mps 594 mmHg 82%
    07:00 +7°C° 0 mm 1 mps 595 mmHg 76%
    08:00 +8°C° 0 mm 1 mps 595 mmHg 69%
    09:00 +10°C° 0 mm 1 mps 596 mmHg 62%
    10:00 +11°C° 0 mm 1 mps 596 mmHg 55%
    11:00 +11°C° 0.4 mm 1 mps 596 mmHg 58%
    12:00 +10°C° 0.4 mm 2 mps 596 mmHg 62%
    13:00 +10°C° 0 mm 2 mps 596 mmHg 66%
    14:00 +10°C° 0.6 mm 2 mps 596 mmHg 68%
    15:00 +9°C° 0.6 mm 2 mps 596 mmHg 69%
    16:00 +10°C° 0.6 mm 1 mps 596 mmHg 70%
    17:00 +9°C° 0.3 mm 1 mps 596 mmHg 74%
    18:00 +9°C° 0.3 mm 1 mps 595 mmHg 78%
    19:00 +8°C° 0.3 mm 1 mps 595 mmHg 83%
    20:00 +7°C° 0.1 mm 1 mps 595 mmHg 85%
    21:00 +6°C° 0.1 mm 1 mps 595 mmHg 87%
    22:00 +3°C° 0.1 mm 2 mps 595 mmHg 89%
    23:00 +3°C° 0 mm 2 mps 594 mmHg 89%

    Tomorrow, 23 May, Wednesday

    Time Temperature Precipitation Wind Pressure Humidity
    00:00 +3°C° 0 mm 2 mps 594 mmHg 89%
    01:00 +2°C° 0 mm 2 mps 594 mmHg 89%
    02:00 +2°C° 0 mm 2 mps 594 mmHg 89%
    03:00 +3°C° 0 mm 1 mps 594 mmHg 89%
    04:00 +2°C° 0 mm 1 mps 594 mmHg 89%
    05:00 +4°C° 0 mm 1 mps 595 mmHg 84%
    06:00 +6°C° 0 mm 1 mps 596 mmHg 80%
    07:00 +7°C° 0 mm 0 mps 597 mmHg 75%
    08:00 +9°C° 0 mm 1 mps 598 mmHg 68%
    09:00 +11°C° 0 mm 1 mps 599 mmHg 62%
    10:00 +13°C° 0 mm 1 mps 599 mmHg 55%
    11:00 +13°C° 0.3 mm 1 mps 599 mmHg 57%
    12:00 +13°C° 0.3 mm 1 mps 599 mmHg 58%
    13:00 +14°C° 0.3 mm 1 mps 599 mmHg 60%
    14:00 +13°C° 1.1 mm 1 mps 599 mmHg 63%
    15:00 +13°C° 1.1 mm 1 mps 599 mmHg 66%
    16:00 +13°C° 1.1 mm 1 mps 599 mmHg 70%
    17:00 +12°C° 1.2 mm 1 mps 598 mmHg 76%
    18:00 +11°C° 1.2 mm 1 mps 598 mmHg 82%
    19:00 +10°C° 1.2 mm 1 mps 598 mmHg 88%
    20:00 +8°C° 1.4 mm 1 mps 598 mmHg 89%
    21:00 +7°C° 1.4 mm 1 mps 597 mmHg 91%
    22:00 +6°C° 1.4 mm 1 mps 597 mmHg 93%
    23:00 +6°C° 0.5 mm 1 mps 597 mmHg 93%

    Day after tomorrow, 24 May, Thursday

    Time Temperature Precipitation Wind Pressure Humidity
    00:00 +4°C° 0.5 mm 2 mps 597 mmHg 93%
    01:00 +4°C° 0.5 mm 2 mps 597 mmHg 93%
    02:00 +4°C° 0.4 mm 2 mps 597 mmHg 93%
    03:00 +4°C° 0.4 mm 1 mps 597 mmHg 93%
    04:00 +4°C° 0.4 mm 1 mps 596 mmHg 93%
    05:00 +6°C° 0.2 mm 1 mps 597 mmHg 89%
    06:00 +7°C° 0.2 mm 1 mps 598 mmHg 85%
    07:00 +8°C° 0.2 mm 0 mps 599 mmHg 81%
    08:00 +9°C° 0.2 mm 0 mps 600 mmHg 76%
    09:00 +11°C° 0.2 mm 0 mps 600 mmHg 70%
    10:00 +13°C° 0.2 mm 1 mps 601 mmHg 65%
    11:00 +14°C° 1.3 mm 1 mps 601 mmHg 65%
    12:00 +14°C° 1.3 mm 1 mps 601 mmHg 66%
    13:00 +14°C° 1.3 mm 1 mps 600 mmHg 66%
    14:00 +14°C° 1.6 mm 1 mps 600 mmHg 70%
    15:00 +13°C° 1.6 mm 1 mps 600 mmHg 73%
    16:00 +13°C° 1.6 mm 2 mps 600 mmHg 77%
    17:00 +12°C° 0.8 mm 1 mps 599 mmHg 81%
    18:00 +11°C° 0.8 mm 1 mps 599 mmHg 85%
    19:00 +10°C° 0.8 mm 1 mps 599 mmHg 89%
    20:00 +9°C° 0.5 mm 1 mps 599 mmHg 91%
    21:00 +8°C° 0.5 mm 1 mps 599 mmHg 93%
    22:00 +7°C° 0.5 mm 1 mps 598 mmHg 95%
    23:00 +6°C° 0 mm 1 mps 598 mmHg 95%

    25 May, Friday

    Time Temperature Precipitation Wind Pressure Humidity
    00:00 +5°C° 0 mm 1 mps 598 mmHg 94%
    01:00 +5°C° 0 mm 1 mps 597 mmHg 94%
    02:00 +4°C° 0 mm 1 mps 597 mmHg 93%
    03:00 +4°C° 0 mm 1 mps 597 mmHg 92%
    04:00 +4°C° 0 mm 1 mps 597 mmHg 91%
    05:00 +6°C° 0 mm 1 mps 598 mmHg 86%
    06:00 +8°C° 0 mm 1 mps 599 mmHg 81%
    07:00 +10°C° 0 mm 1 mps 600 mmHg 76%
    08:00 +12°C° 0 mm 1 mps 600 mmHg 65%
    09:00 +14°C° 0 mm 1 mps 601 mmHg 55%
    10:00 +16°C° 0 mm 1 mps 602 mmHg 44%
    11:00 +18°C° 0 mm 1 mps 602 mmHg 42%
    12:00 +17°C° 0 mm 2 mps 602 mmHg 39%
    13:00 +18°C° 0 mm 2 mps 603 mmHg 37%
    14:00 +18°C° 0.1 mm 2 mps 602 mmHg 41%
    15:00 +17°C° 0.1 mm 2 mps 602 mmHg 45%
    16:00 +17°C° 0.1 mm 2 mps 602 mmHg 49%
    17:00 +15°C° 0.8 mm 2 mps 601 mmHg 60%
    18:00 +13°C° 0.8 mm 2 mps 601 mmHg 71%
    19:00 +12°C° 0.8 mm 1 mps 600 mmHg 82%
    20:00 +10°C° 0.4 mm 1 mps 600 mmHg 85%
    21:00 +9°C° 0.4 mm 1 mps 599 mmHg 89%
    22:00 +7°C° 0.4 mm 1 mps 599 mmHg 92%
    23:00 +7°C° 0 mm 1 mps 599 mmHg 91%

    26 May, Saturday

    Time Temperature Precipitation Wind Pressure Humidity
    00:00 +6°C° 0 mm 1 mps 599 mmHg 90%
    01:00 +6°C° 0 mm 1 mps 598 mmHg 89%
    02:00 +6°C° 0 mm 1 mps 598 mmHg 88%
    03:00 +5°C° 0 mm 1 mps 598 mmHg 87%
    04:00 +5°C° 0 mm 1 mps 598 mmHg 87%
    05:00 +7°C° 0 mm 1 mps 599 mmHg 81%
    06:00 +9°C° 0 mm 1 mps 600 mmHg 76%
    07:00 +11°C° 0 mm 1 mps 601 mmHg 70%
    08:00 +14°C° 0 mm 1 mps 602 mmHg 60%
    09:00 +16°C° 0 mm 1 mps 603 mmHg 50%
    10:00 +19°C° 0 mm 1 mps 604 mmHg 40%
    11:00 +20°C° 0 mm 1 mps 604 mmHg 37%
    12:00 +20°C° 0 mm 1 mps 604 mmHg 35%
    13:00 +21°C° 0 mm 1 mps 605 mmHg 33%
    14:00 +20°C° 0 mm 2 mps 604 mmHg 35%
    15:00 +20°C° 0 mm 2 mps 604 mmHg 37%
    16:00 +19°C° 0 mm 2 mps 604 mmHg 40%
    17:00 +18°C° 0.3 mm 2 mps 603 mmHg 52%
    18:00 +16°C° 0.3 mm 1 mps 603 mmHg 64%
    19:00 +14°C° 0.3 mm 1 mps 602 mmHg 76%
    20:00 +13°C° 0.4 mm 1 mps 602 mmHg 80%
    21:00 +11°C° 0.4 mm 1 mps 601 mmHg 84%
    22:00 +9°C° 0.4 mm 1 mps 601 mmHg 88%
    23:00 +9°C° 0 mm 1 mps 601 mmHg 86%

    27 May, Sunday

    Time Temperature Precipitation Wind Pressure Humidity
    00:00 +8°C° 0 mm 1 mps 600 mmHg 85%
    01:00 +8°C° 0 mm 1 mps 600 mmHg 83%
    02:00 +8°C° 0 mm 1 mps 600 mmHg 82%
    03:00 +8°C° 0 mm 1 mps 600 mmHg 80%
    04:00 +7°C° 0 mm 1 mps 599 mmHg 79%
    05:00 +9°C° 0 mm 1 mps 600 mmHg 73%
    06:00 +11°C° 0 mm 1 mps 601 mmHg 67%
    07:00 +13°C° 0 mm 1 mps 602 mmHg 62%
    08:00 +15°C° 0 mm 1 mps 603 mmHg 53%
    09:00 +18°C° 0 mm 1 mps 604 mmHg 45%
    10:00 +20°C° 0 mm 1 mps 604 mmHg 37%
    11:00 +21°C° 0 mm 1 mps 604 mmHg 36%
    12:00 +21°C° 0 mm 1 mps 605 mmHg 35%
    13:00 +22°C° 0 mm 1 mps 605 mmHg 34%
    14:00 +21°C° 0.1 mm 1 mps 604 mmHg 37%
    15:00 +21°C° 0.1 mm 1 mps 604 mmHg 40%
    16:00 +19°C° 0.1 mm 2 mps 604 mmHg 43%
    17:00 +19°C° 0.6 mm 1 mps 603 mmHg 55%
    18:00 +16°C° 0.6 mm 1 mps 602 mmHg 67%
    19:00 +13°C° 0.6 mm 0 mps 602 mmHg 79%
    20:00 +13°C° 0.4 mm 1 mps 602 mmHg 79%
    21:00 +12°C° 0.4 mm 1 mps 601 mmHg 80%
    22:00 +11°C° 0.4 mm 1 mps 601 mmHg 80%
    23:00 +11°C° 0 mm 1 mps 601 mmHg 80%
    Show more